Location: Fort Wayne
(41.1310°N, 85.1290°W)
Time: 04:39:25
(UTC-04:00)

SR - Visible Passes

Search period start: 25 May 2017 00:00
Search period end: 04 June 2017 00:00
Orbit: 574 x 884 km, 66.7° (Epoch: 24 May)

Date Brightness Start Highest point End Pass type
(mag) Time Alt. Az. Time Alt. Az. Time Alt. Az.
25 May ? 00:42:01 10° WSW 00:47:08 30° NW 00:52:21 10° NNE visible
25 May ? 22:11:09 11° SSE 22:15:34 26° ESE 22:20:24 10° NE visible
25 May ? 23:51:44 10° SW 23:57:23 52° NW 00:03:12 10° NNE visible
26 May ? 01:38:33 10° WNW 01:40:57 12° NW 01:43:22 10° N visible
26 May ? 23:02:04 10° SSW 23:07:51 88° ESE 23:13:51 10° NNE visible
27 May ? 00:46:37 10° W 00:50:48 20° NW 00:55:02 10° N visible
27 May ? 22:13:02 10° S 22:18:31 48° ESE 22:24:12 10° NE visible
27 May ? 23:55:42 10° WSW 00:00:52 31° NW 00:06:08 10° NNE visible
28 May ? 23:05:27 10° SW 23:11:08 54° NW 23:16:59 10° NNE visible
29 May ? 00:52:04 10° WNW 00:54:39 13° NW 00:57:15 10° N visible
29 May ? 22:15:49 10° SSW 22:21:37 85° ESE 22:27:36 10° NNE visible
30 May ? 00:00:15 10° W 00:04:31 20° NW 00:08:50 10° N visible
30 May ? 05:17:26 10° N 05:20:04 13° NE 05:22:37 10° ENE visible
30 May ? 21:26:49 10° S 21:32:17 46° ESE 21:37:56 10° NE visible
30 May ? 23:09:22 10° WSW 23:14:36 33° NW 23:19:56 10° NNE visible
31 May ? 22:19:10 10° SW 22:24:53 56° NW 22:30:45 10° NNE visible
01 Jun ? 00:05:36 10° WNW 00:08:21 13° NW 00:11:06 10° N visible
01 Jun ? 05:19:45 10° N 05:23:52 20° NE 05:27:47 10° E visible
01 Jun ? 23:13:52 10° W 23:18:14 21° NW 23:22:38 10° N visible
02 Jun ? 04:31:21 10° N 04:33:45 13° NE 04:36:07 10° ENE visible
02 Jun ? 22:23:02 10° WSW 22:28:20 34° NW 22:33:42 10° NNE visible
03 Jun ? 05:22:29 10° NNW 05:27:29 33° NE 05:32:08 10° ESE visible
03 Jun ? 21:32:52 10° SW 21:38:38 59° WNW 21:44:31 10° NNE visible
03 Jun ? 23:19:09 10° WNW 23:22:03 14° NW 23:24:57 10° N visible
